Location: Bonny Doon Airfield
(37.0704°N, 122.1252°W)
Time: 07:04:51
(UTC-08:00)

Vanguard 1 - All Passes

Search period start: 16 January 2018 00:00
Search period end: 26 January 2018 00:00
Orbit: 649 x 3834 km, 34.3° (Epoch: 15 January)

Date Brightness Start Highest point End Pass type
(mag) Time Alt. Az. Time Alt. Az. Time Alt. Az.
16 Jan - 00:04:42 10° SW 00:12:06 50° SSE 00:25:39 10° E visible
16 Jan - 02:23:37 10° W 02:34:15 80° S 02:54:06 10° E visible
16 Jan - 04:44:21 10° W 04:59:07 71° SSW 05:22:12 10° ESE visible
16 Jan - 07:07:11 10° W 07:24:41 44° SW 07:45:45 10° SSE daylight
16 Jan - 09:37:53 10° WSW 09:48:48 16° SW 09:59:44 10° SSW daylight
16 Jan - 22:09:20 10° S 22:13:34 17° SE 22:19:16 10° E night (unlit)
17 Jan - 00:25:14 10° SW 00:32:56 60° SSE 00:47:27 10° E visible
17 Jan - 02:44:35 10° W 02:55:37 80° S 03:15:58 10° E visible
17 Jan - 05:05:30 10° W 05:20:34 65° SSW 05:43:26 10° SE visible
17 Jan - 07:29:03 10° W 07:45:50 36° SW 08:05:31 10° SSE daylight
17 Jan - 22:28:42 10° SSW 22:33:54 26° SE 22:41:44 10° E night (unlit)
18 Jan - 00:45:55 10° WSW 00:53:55 69° SSE 01:09:15 10° E visible
18 Jan - 03:05:35 10° W 03:17:01 78° S 03:37:47 10° ESE visible
18 Jan - 05:26:43 10° W 05:41:57 57° SSW 06:04:23 10° SE visible
18 Jan - 07:51:22 10° W 08:06:55 28° SW 08:24:40 10° S daylight
18 Jan - 22:48:40 10° SSW 22:54:21 35° SE 23:03:43 10° E night (unlit)
19 Jan - 01:06:43 10° WSW 01:15:01 75° S 01:31:03 10° E visible
19 Jan - 03:26:36 10° W 03:38:25 74° S 03:59:28 10° ESE visible
19 Jan - 05:48:03 10° W 06:03:18 49° SSW 06:24:58 10° SE visible
19 Jan - 08:14:29 10° W 08:27:58 21° SW 08:42:55 10° S daylight
19 Jan - 23:08:59 10° SW 23:14:58 46° SSE 23:25:29 10° E night (unlit)
20 Jan - 01:27:35 10° W 01:36:12 78° S 01:52:53 10° E visible
20 Jan - 03:47:38 10° W 03:59:47 69° SSW 04:20:58 10° ESE visible
20 Jan - 06:09:33 10° W 06:24:35 41° SSW 06:45:10 10° SSE visible
20 Jan - 08:39:22 10° WSW 08:49:02 15° SW 08:59:22 10° SSW daylight
20 Jan - 21:13:59 10° SSE 21:16:45 14° SE 21:20:05 10° ESE night (unlit)
20 Jan - 23:29:29 10° SW 23:35:45 57° SSE 23:47:10 10° E night (unlit)
21 Jan - 01:48:30 10° W 01:57:26 78° S 02:14:42 10° E visible
21 Jan - 04:08:42 10° W 04:21:08 61° SSW 04:42:13 10° SE visible
21 Jan - 06:31:22 10° W 06:45:50 34° SW 07:04:52 10° SSE visible
21 Jan - 21:33:07 10° S 21:37:09 21° SE 21:42:40 10° E night (unlit)
21 Jan - 23:50:10 10° WSW 23:56:41 66° SSE 00:08:49 10° E visible
22 Jan - 02:09:25 10° W 02:18:42 76° S 02:36:28 10° ESE visible
22 Jan - 04:29:51 10° W 04:42:29 54° SSW 05:03:10 10° SE visible
22 Jan - 06:53:40 10° W 07:07:04 26° SW 07:23:53 10° S visible
22 Jan - 21:53:01 10° SSW 21:57:38 31° SE 22:04:34 10° E night (unlit)
23 Jan - 00:10:56 10° WSW 00:17:42 73° S 00:30:30 10° E visible
23 Jan - 02:30:22 10° W 02:39:58 71° SSW 02:58:06 10° ESE visible
23 Jan - 04:51:07 10° W 05:03:48 45° SSW 05:23:44 10° SE visible
23 Jan - 07:16:54 10° WSW 07:28:18 19° SW 07:41:52 10° S daylight
23 Jan - 22:13:18 10° SW 22:18:17 41° SSE 22:26:13 10° E night (unlit)
24 Jan - 00:31:47 10° W 00:38:47 76° S 00:52:12 10° E visible
24 Jan - 02:51:21 10° W 03:01:13 64° SSW 03:19:33 10° ESE visible
24 Jan - 05:12:36 10° W 05:25:06 37° SSW 05:43:53 10° SSE visible
24 Jan - 07:42:21 10° WSW 07:49:34 13° SW 07:57:32 10° SSW daylight
24 Jan - 20:18:43 10° SSE 20:20:07 11° SE 20:21:37 10° ESE night (unlit)
24 Jan - 22:33:51 10° SW 22:39:03 53° SSE 22:47:45 10° E night (unlit)
25 Jan - 00:52:40 10° W 00:59:55 76° S 01:13:53 10° E visible
25 Jan - 03:12:22 10° W 03:22:30 57° SSW 03:40:46 10° SE visible
25 Jan - 05:34:25 10° W 05:46:26 30° SSW 06:03:28 10° SSE visible
25 Jan - 20:37:24 10° S 20:40:38 18° SE 20:44:31 10° E night (unlit)
25 Jan - 22:54:31 10° WSW 22:59:55 63° SSE 23:09:15 10° E night (unlit)
